{"data":{"norad_id":66285,"intl_designator":"2025-247W","name":"STARLINK-35819","alt_names":[],"object_type":"PAYLOAD","status":"ACTIVE","operator":null,"country":"US","launch_date":"2025-10-31","launch_site_code":"AFWTR","launch_vehicle":null,"mission":null,"orbit_class":"UNKNOWN","rcs_meters":null,"size_class":null,"mass_kg":null,"dimensions":null,"purposes":["comms"],"wikipedia_slug":null,"has_3d_model":false,"image_url":null,"decayed_at":null,"tle_current":{"epoch":"2026-09-20T14:10:41.215584Z","epoch_age_seconds":88865,"freshness":"FRESH","line1":"1 66285U 25247W   26263.59075481  .00014060  00000+0  42627-3 0  9999","line2":"2 66285  53.1602   3.3254 0000925  92.7106 267.4003 15.34416091 50915","mean_motion":15.34416091,"eccentricity":9.25e-5,"inclination_deg":53.1602,"raan_deg":3.3254,"arg_perigee_deg":92.7106,"mean_anomaly_deg":267.4003,"bstar":0.00042627,"rev_number":5091,"period_min":93.846773925678,"perigee_km":462.02264148366,"apogee_km":463.2881880804,"semimajor_km":6840.792414782,"source":"CELESTRAK","updated_at":"2026-09-21T09:00:35.870960Z"}}}